Location: Strawberry
(45.6646°N, 111.9596°W)
Time: 21:57:21
(UTC+00:00)

Courier 1B Rocket - Pass Details

Date: 13 October 2022
Orbit: 920 x 1202 km, 28.3° (Epoch: 03 December)

Event Time Altitude Azimuth Distance (km) Brightness Sun altitude
Rises 00:46:52 0° 244° (WSW) 4,005 10.1 -0.8°
Reaches altitude 10° 00:50:42 10° 227° (SW) 2,997 8.6 -1.4°
Maximum altitude 00:55:25 18° 187° (S) 2,368 7.3 -2.2°
Drops below altitude 10° 00:59:57 10° 146° (SE) 2,860 7.2 -3.0°
Sets 01:03:30 0° 128° (SE) 3,756 7.6 -3.6°
